,,Stat5,,Stat1,,Stat2,,Stat3,,Stat4,,Wind1,,Wind1
time,status,PA1M_AVG,status,PR1M_SUM,status,RH1M_AVG,status,SR1M_AVG,status,TA1M_AVG,status,W1dAve1m,status,W1sAve1m
2000-09-12, 00:00:01,VALID,917.997,VALID,0,VALID,96.839,VALID,-0.0169808,VALID,18.143,VALID,195,VALID,1.11338
2000-09-12, 00:01:01,VALID,917.986,VALID,0,VALID,97.1938,VALID,0,VALID,18.1795,VALID,192,VALID,1.26457
2000-09-12, 00:02:00,VALID,917.971,VALID,0,VALID,97.2523,VALID,0,VALID,18.2019,VALID,189,VALID,1.38759
2000-09-12, 00:03:00,VALID,917.966,VALID,0,VALID,97.0832,VALID,0,VALID,18.2242,VALID,190,VALID,1.20292
2000-09-12, 00:04:00,VALID,917.937,VALID,0,VALID,96.9001,VALID,0,VALID,18.2238,VALID,187,VALID,1.17057
2000-09-12, 00:05:00,VALID,917.924,VALID,0,VALID,96.731,VALID,0,VALID,18.2175,VALID,181,VALID,1.22636
2000-09-12, 00:06:00,VALID,917.912,VALID,0,VALID,96.6254,VALID,0,VALID,18.1956,VALID,182,VALID,0.968961
2000-09-12, 00:07:00,VALID,917.914,VALID,0,VALID,96.8365,VALID,0,VALID,18.1534,VALID,183,VALID,0.909375
2000-09-12, 00:08:01,VALID,917.895,VALID,0,VALID,97.1264,VALID,0,VALID,18.1338,VALID,186,VALID,1.0621
2000-09-12, 00:09:00,VALID,917.887,VALID,0,VALID,97.4138,VALID,-0.0169808,VALID,18.1213,VALID,184,VALID,1.11293
2000-09-12, 00:10:00,VALID,917.878,VALID,0,VALID,97.6452,VALID,0,VALID,18.1077,VALID,175,VALID,1.01362
2000-09-12, 00:11:00,VALID,917.875,VALID,0,VALID,97.7126,VALID,-0.0169808,VALID,18.0985,VALID,178,VALID,0.96136
2000-09-12, 00:12:01,VALID,917.86,VALID,0,VALID,97.9848,VALID,0,VALID,18.1243,VALID,178,VALID,1.11064
2000-09-12, 00:13:01,VALID,917.86,VALID,0,VALID,97.9275,VALID,0,VALID,18.111,VALID,175,VALID,1.10012
2000-09-12, 00:14:00,VALID,917.831,VALID,0,VALID,98.0051,VALID,0,VALID,18.1181,VALID,175,VALID,1.01931
2000-09-12, 00:15:00,VALID,917.81,VALID,0,VALID,97.9809,VALID,0,VALID,18.1121,VALID,174,VALID,1.04523
2000-09-12, 00:16:00,VALID,917.784,VALID,0,VALID,97.8894,VALID,-0.0169808,VALID,18.0891,VALID,167,VALID,0.628801
2000-09-12, 00:17:00,VALID,917.765,VALID,0,VALID,97.7203,VALID,-0.0339617,VALID,18.06,VALID,166,VALID,0.608456
2000-09-12, 00:18:00,VALID,917.755,VALID,0,VALID,97.6084,VALID,-0.0339617,VALID,18.0346,VALID,167,VALID,0.622738
2000-09-12, 00:19:00,VALID,917.737,VALID,0,VALID,97.5473,VALID,-0.0169808,VALID,18.0051,VALID,176,VALID,0.601985
2000-09-12, 00:20:00,VALID,917.742,VALID,0,VALID,97.7648,VALID,0,VALID,17.9919,VALID,184,VALID,0.708882
2000-09-12, 00:21:00,VALID,917.721,VALID,0,VALID,97.8856,VALID,0,VALID,18.0016,VALID,188,VALID,0.763725
2000-09-12, 00:22:00,VALID,917.721,VALID,0,VALID,97.9797,VALID,-0.0169808,VALID,18.0115,VALID,181,VALID,1.11607
2000-09-12, 00:23:01,VALID,917.703,VALID,0,VALID,97.9949,VALID,0,VALID,18.0307,VALID,179,VALID,0.959535
2000-09-12, 00:24:00,VALID,917.695,VALID,0,VALID,97.9441,VALID,0,VALID,18.0369,VALID,184,VALID,1.15365
2000-09-12, 00:25:00,VALID,917.689,VALID,0,VALID,97.8792,VALID,0,VALID,18.0632,VALID,184,VALID,1.09754
2000-09-12, 00:26:00,VALID,917.68,VALID,0,VALID,97.6262,VALID,0,VALID,18.0632,VALID,181,VALID,1.07137
2000-09-12, 00:27:01,VALID,917.681,VALID,0,VALID,97.3884,VALID,-0.0169808,VALID,18.0473,VALID,172,VALID,1.00401
2000-09-12, 00:28:01,VALID,917.683,VALID,0,VALID,97.0094,VALID,-0.0339617,VALID,18.0051,VALID,157,VALID,0.872533
2000-09-12, 00:29:00,VALID,917.688,VALID,0,VALID,96.8301,VALID,-0.0509425,VALID,17.9597,VALID,154,VALID,0.873698
2000-09-12, 00:30:00,VALID,917.688,VALID,0,VALID,96.8785,VALID,-0.0169808,VALID,17.9336,VALID,160,VALID,0.967105
2000-09-12, 00:31:00,VALID,917.696,VALID,0,VALID,96.895,VALID,0,VALID,17.9112,VALID,167,VALID,0.680743
2000-09-12, 00:32:00,VALID,917.705,VALID,0,VALID,96.9344,VALID,0,VALID,17.8789,VALID,181,VALID,0.622702
2000-09-12, 00:33:00,VALID,917.691,VALID,0,VALID,97.3401,VALID,0.0169808,VALID,17.8692,VALID,202,VALID,0.869449
2000-09-12, 00:34:00,VALID,917.677,VALID,0,VALID,97.3998,VALID,-0.0169808,VALID,17.8662,VALID,220,VALID,0.749578
2000-09-12, 00:35:00,VALID,917.66,VALID,0,VALID,97.4761,VALID,-0.0169808,VALID,17.8531,VALID,222,VALID,1.09498
2000-09-12, 00:36:00,VALID,917.627,VALID,0,VALID,97.761,VALID,-0.0339617,VALID,17.8697,VALID,220,VALID,1.01795
2000-09-12, 00:37:00,VALID,917.627,VALID,0,VALID,97.8551,VALID,-0.0169808,VALID,17.8722,VALID,223,VALID,0.628795
2000-09-12, 00:38:01,VALID,917.61,VALID,0,VALID,97.897,VALID,-0.0339617,VALID,17.8764,VALID,210,VALID,0.80008
2000-09-12, 00:39:00,VALID,917.601,VALID,0,VALID,97.9237,VALID,-0.0509425,VALID,17.8667,VALID,210,VALID,0.675189
2000-09-12, 00:40:00,VALID,917.593,VALID,0,VALID,97.9034,VALID,-0.0339617,VALID,17.8277,VALID,197,VALID,0.585714
2000-09-12, 00:41:00,VALID,917.586,VALID,0,VALID,97.8792,VALID,-0.0339617,VALID,17.8019,VALID,194,VALID,0.488809
2000-09-12, 00:42:01,VALID,917.588,VALID,0,VALID,97.9352,VALID,-0.0339617,VALID,17.7661,VALID,192,VALID,0.46875
2000-09-12, 00:43:01,VALID,917.583,VALID,0,VALID,97.9949,VALID,-0.0509425,VALID,17.7472,VALID,202,VALID,0.387952
2000-09-12, 00:44:00,VALID,917.576,VALID,0,VALID,98.2048,VALID,-0.0169808,VALID,17.7537,VALID,203,VALID,0.647352
2000-09-12, 00:45:00,VALID,917.558,VALID,0,VALID,98.323,VALID,-0.0339617,VALID,17.7603,VALID,190,VALID,0.603618
2000-09-12, 00:46:01,VALID,917.552,VALID,0,VALID,98.4158,VALID,-0.0509425,VALID,17.7338,VALID,177,VALID,0.597551
2000-09-12, 00:47:00,VALID,917.534,VALID,0,VALID,98.4273,VALID,0,VALID,17.7407,VALID,164,VALID,0.568474
2000-09-12, 00:48:01,VALID,917.52,VALID,0,VALID,98.5811,VALID,-0.0169808,VALID,17.7601,VALID,164,VALID,0.587171
2000-09-12, 00:49:00,VALID,917.503,VALID,0,VALID,98.6676,VALID,-0.0169808,VALID,17.7889,VALID,164,VALID,0.553843
2000-09-12, 00:50:00,VALID,917.489,VALID,0,VALID,98.6676,VALID,-0.0169808,VALID,17.8021,VALID,164,VALID,0.509252
2000-09-12, 00:51:00,VALID,917.484,VALID,0,VALID,98.6447,VALID,-0.0339617,VALID,17.8245,VALID,164,VALID,0.63239
2000-09-12, 00:52:00,VALID,917.482,VALID,0,VALID,98.6028,VALID,-0.0509425,VALID,17.821,VALID,169,VALID,0.607366
2000-09-12, 00:53:01,VALID,917.482,VALID,0,VALID,98.5328,VALID,-0.0509425,VALID,17.8344,VALID,170,VALID,0.621194
2000-09-12, 00:54:00,VALID,917.478,VALID,0,VALID,98.5099,VALID,-0.0509425,VALID,17.86,VALID,175,VALID,0.73911
2000-09-12, 00:55:01,VALID,917.479,VALID,0,VALID,98.4387,VALID,0,VALID,17.9216,VALID,179,VALID,0.889063
2000-09-12, 00:56:00,VALID,917.468,VALID,0,VALID,98.0585,VALID,-0.0509425,VALID,17.9276,VALID,170,VALID,0.762669
2000-09-12, 00:57:01,VALID,917.469,VALID,0,VALID,97.3324,VALID,-0.0169808,VALID,17.9149,VALID,159,VALID,0.594806
2000-09-12, 00:58:01,VALID,917.468,VALID,0,VALID,96.4359,VALID,-0.0509425,VALID,17.8469,VALID,146,VALID,0.611842
2000-09-12, 00:59:01,VALID,917.449,VALID,0,VALID,95.7773,VALID,-0.0339617,VALID,17.7636,VALID,138,VALID,0.630208
2000-09-12, 01:00:00,VALID,917.446,VALID,0,VALID,95.6984,VALID,-0.0339617,VALID,17.6822,VALID,134,VALID,0.59889
2000-09-12, 01:01:01,VALID,917.432,VALID,0,VALID,96.0532,VALID,-0.0169808,VALID,17.6307,VALID,138,VALID,0.64147
2000-09-12, 01:02:01,VALID,917.412,VALID,0,VALID,96.5466,VALID,-0.0339617,VALID,17.6081,VALID,142,VALID,0.617877
2000-09-12, 01:03:01,VALID,917.408,VALID,0,VALID,96.7119,VALID,-0.0339617,VALID,17.5726,VALID,142,VALID,0.593339
2000-09-12, 01:04:01,VALID,917.402,VALID,0,VALID,97.0743,VALID,0,VALID,17.5758,VALID,143,VALID,0.616554
2000-09-12, 01:05:01,VALID,917.388,VALID,0,VALID,97.3757,VALID,-0.0169808,VALID,17.5954,VALID,157,VALID,0.727179
2000-09-12, 01:06:01,VALID,917.383,VALID,0,VALID,97.5626,VALID,-0.0339617,VALID,17.5954,VALID,164,VALID,0.740287
2000-09-12, 01:07:01,VALID,917.359,VALID,0,VALID,97.7126,VALID,-0.0339617,VALID,17.5954,VALID,165,VALID,0.871205
2000-09-12, 01:08:01,VALID,917.347,VALID,0,VALID,97.4481,VALID,-0.0509425,VALID,17.5735,VALID,161,VALID,0.825321
2000-09-12, 01:09:01,VALID,917.342,VALID,0,VALID,97.4329,VALID,-0.0849042,VALID,17.5343,VALID,154,VALID,0.929688
2000-09-12, 01:10:01,VALID,917.342,VALID,0,VALID,97.794,VALID,-0.0339617,VALID,17.5407,VALID,171,VALID,1.01362
2000-09-12, 01:11:01,VALID,917.328,VALID,0,VALID,97.9441,VALID,-0.0339617,VALID,17.5829,VALID,163,VALID,0.795819
2000-09-12, 01:12:01,VALID,917.319,VALID,0,VALID,97.9987,VALID,-0.101885,VALID,17.6152,VALID,176,VALID,0.653505
2000-09-12, 01:13:01,VALID,917.312,VALID,0,VALID,98.1285,VALID,-0.0339617,VALID,17.6374,VALID,179,VALID,0.656867
2000-09-12, 01:14:01,VALID,917.301,VALID,0,VALID,98.0433,VALID,-0.0339617,VALID,17.6533,VALID,157,VALID,0.293186
2000-09-12, 01:15:01,VALID,917.297,VALID,0,VALID,97.9784,VALID,0.0339617,VALID,17.6432,VALID,166,VALID,0.70148
2000-09-12, 01:16:01,VALID,917.278,VALID,0,VALID,98.0382,VALID,0.0509425,VALID,17.6593,VALID,167,VALID,0.555321
2000-09-12, 01:17:01,VALID,917.275,VALID,0,VALID,98.1208,VALID,0,VALID,17.6755,VALID,185,VALID,0.632123
2000-09-12, 01:18:01,VALID,917.251,VALID,0,VALID,98.042,VALID,0.0169808,VALID,17.6619,VALID,176,VALID,0.481702
2000-09-12, 01:19:01,VALID,917.259,VALID,0,VALID,98.075,VALID,0.0679233,VALID,17.6557,VALID,186,VALID,0.626056
2000-09-12, 01:20:01,VALID,917.24,VALID,0,VALID,98.1157,VALID,0.0849042,VALID,17.6492,VALID,188,VALID,0.742393
2000-09-12, 01:21:00,VALID,917.23,VALID,0,VALID,98.2225,VALID,0.0679233,VALID,17.6554,VALID,193,VALID,0.772804
2000-09-12, 01:22:00,VALID,917.218,VALID,0,VALID,98.276,VALID,0.0509425,VALID,17.6688,VALID,181,VALID,0.728125
2000-09-12, 01:23:00,VALID,917.214,VALID,0,VALID,98.454,VALID,0.0509425,VALID,17.6983,VALID,182,VALID,0.725361
2000-09-12, 01:24:00,VALID,917.215,VALID,0,VALID,98.2187,VALID,0.0509425,VALID,17.675,VALID,169,VALID,0.030303
2000-09-12, 01:25:00,VALID,917.209,VALID,0,VALID,97.6007,VALID,0.0849042,VALID,17.5879,VALID,169,VALID,0
2000-09-12, 01:26:00,VALID,917.197,VALID,0,VALID,97.5028,VALID,0.0849042,VALID,17.5653,VALID,169,VALID,0
2000-09-12, 01:27:00,VALID,917.201,VALID,0,VALID,97.6923,VALID,0.0849042,VALID,17.5782,VALID,169,VALID,0
2000-09-12, 01:28:00,VALID,917.216,VALID,0,VALID,97.8296,VALID,0.0679233,VALID,17.5881,VALID,169,VALID,0
2000-09-12, 01:29:00,VALID,917.208,VALID,0,VALID,97.9148,VALID,-0.0169808,VALID,17.5818,VALID,169,VALID,0
2000-09-12, 01:30:00,VALID,917.217,VALID,0,VALID,98.0941,VALID,-0.0339617,VALID,17.5963,VALID,171,VALID,0
2000-09-12, 01:31:00,VALID,917.212,VALID,0,VALID,98.0763,VALID,-0.101885,VALID,17.5866,VALID,170,VALID,0
2000-09-12, 01:32:00,VALID,917.222,VALID,0,VALID,97.9784,VALID,-0.0509425,VALID,17.5474,VALID,164,VALID,0
2000-09-12, 01:33:00,VALID,917.216,VALID,0,VALID,97.9542,VALID,-0.0679233,VALID,17.5119,VALID,165,VALID,0
2000-09-12, 01:34:00,VALID,917.203,VALID,0,VALID,97.8868,VALID,-0.0339617,VALID,17.4794,VALID,165,VALID,0
2000-09-12, 01:35:00,VALID,917.19,VALID,0,VALID,97.2485,VALID,-0.0509425,VALID,17.3662,VALID,158,VALID,0
2000-09-12, 01:36:00,VALID,917.167,VALID,0,VALID,96.291,VALID,-0.0509425,VALID,17.1918,VALID,142,VALID,0
2000-09-12, 01:37:00,VALID,917.151,VALID,0,VALID,96.2605,VALID,-0.0339617,VALID,17.0853,VALID,140,VALID,0
2000-09-12, 01:38:00,VALID,917.151,VALID,0,VALID,96.7284,VALID,-0.0339617,VALID,17.0469,VALID,140,VALID,0
2000-09-12, 01:39:00,VALID,917.149,VALID,0,VALID,97.836,VALID,-0.0509425,VALID,17.1113,VALID,148,VALID,0
2000-09-12, 01:40:00,VALID,917.162,VALID,0,VALID,98.749,VALID,-0.0339617,VALID,17.2663,VALID,163,VALID,0
2000-09-12, 01:41:00,VALID,917.156,VALID,0,VALID,99.0745,VALID,-0.0339617,VALID,17.4245,VALID,172,VALID,0
2000-09-12, 01:42:00,VALID,917.148,VALID,0,VALID,99.1228,VALID,-0.0509425,VALID,17.535,VALID,187,VALID,0
2000-09-12, 01:43:00,VALID,917.137,VALID,0,VALID,99.0809,VALID,-0.0679233,VALID,17.5767,VALID,186,VALID,0
2000-09-12, 01:44:00,VALID,917.119,VALID,0,VALID,98.9906,VALID,-0.0679233,VALID,17.5894,VALID,176,VALID,0
2000-09-12, 01:45:00,VALID,917.112,VALID,0,VALID,98.8393,VALID,-0.0509425,VALID,17.5772,VALID,181,VALID,0
2000-09-12, 01:46:00,VALID,917.105,VALID,0,VALID,98.7375,VALID,-0.0679233,VALID,17.5414,VALID,187,VALID,0
2000-09-12, 01:47:00,VALID,917.095,VALID,0,VALID,98.8634,VALID,-0.0169808,VALID,17.5511,VALID,187,VALID,0.597197
2000-09-12, 01:48:00,VALID,917.088,VALID,0,VALID,98.8304,VALID,-0.0509425,VALID,17.5573,VALID,184,VALID,0.728207
2000-09-12, 01:49:00,VALID,917.071,VALID,0,VALID,98.8596,VALID,-0.0339617,VALID,17.5767,VALID,176,VALID,0.862542
2000-09-12, 01:50:00,VALID,917.057,VALID,0,VALID,98.7706,VALID,-0.0509425,VALID,17.57,VALID,172,VALID,0.744038
2000-09-12, 01:51:00,VALID,917.037,VALID,0,VALID,98.8278,VALID,-0.0339617,VALID,17.5698,VALID,181,VALID,0.847128
2000-09-12, 01:52:00,VALID,917.032,VALID,0,VALID,98.8952,VALID,-0.0169808,VALID,17.615,VALID,172,VALID,0.887277
2000-09-12, 01:53:00,VALID,917.016,VALID,0,VALID,98.8533,VALID,-0.0339617,VALID,17.6247,VALID,176,VALID,0.827724
2000-09-12, 01:54:00,VALID,917,VALID,0,VALID,98.8126,VALID,-0.0339617,VALID,17.6378,VALID,189,VALID,1.05658
2000-09-12, 01:55:00,VALID,916.981,VALID,0,VALID,98.8736,VALID,-0.0339617,VALID,17.677,VALID,187,VALID,0.907812
2000-09-12, 01:56:00,VALID,916.97,VALID,0,VALID,98.8711,VALID,-0.0679233,VALID,17.7027,VALID,179,VALID,0.655617
2000-09-12, 01:57:00,VALID,916.938,VALID,0,VALID,98.7388,VALID,-0.0849042,VALID,17.7054,VALID,182,VALID,0.739231
2000-09-12, 01:58:00,VALID,916.907,VALID,0,VALID,98.6447,VALID,-0.101885,VALID,17.7027,VALID,187,VALID,0.913035
2000-09-12, 01:59:00,VALID,916.89,VALID,0,VALID,98.4743,VALID,-0.101885,VALID,17.6805,VALID,187,VALID,0.853733
2000-09-12, 02:00:00,VALID,916.881,VALID,0,VALID,98.4044,VALID,-0.0849042,VALID,17.6738,VALID,189,VALID,0.779811
2000-09-12, 02:01:00,VALID,916.871,VALID,0,VALID,98.1437,VALID,0,VALID,17.6484,VALID,195,VALID,0.694046
2000-09-12, 02:02:00,VALID,916.871,VALID,0,VALID,98.2302,VALID,-0.0849042,VALID,17.6125,VALID,194,VALID,1.00184
2000-09-12, 02:03:00,VALID,916.871,VALID,0,VALID,98.1437,VALID,-0.0169808,VALID,17.6088,VALID,202,VALID,0.571957
2000-09-12, 02:04:00,VALID,916.86,VALID,0,VALID,97.9606,VALID,-0.0339617,VALID,17.5769,VALID,209,VALID,0.462416
2000-09-12, 02:05:00,VALID,916.869,VALID,0,VALID,97.8385,VALID,-0.0509425,VALID,17.5341,VALID,211,VALID,0.406661
2000-09-12, 02:06:00,VALID,916.862,VALID,0,VALID,97.7648,VALID,-0.0509425,VALID,17.5151,VALID,232,VALID,0.136613
2000-09-12, 02:07:00,VALID,916.868,VALID,0,VALID,97.6249,VALID,-0.0509425,VALID,17.4633,VALID,218,VALID,0
2000-09-12, 02:08:00,VALID,916.866,VALID,0,VALID,97.7559,VALID,-0.0679233,VALID,17.4342,VALID,214,VALID,0.0530849
2000-09-12, 02:09:00,VALID,916.868,VALID,0,VALID,97.9835,VALID,-0.0679233,VALID,17.418,VALID,202,VALID,0.560369
2000-09-12, 02:10:00,VALID,916.876,VALID,0,VALID,98.1208,VALID,-0.0509425,VALID,17.4148,VALID,195,VALID,0.425893
2000-09-12, 02:11:00,VALID,916.868,VALID,0,VALID,98.1246,VALID,-0.0679233,VALID,17.3797,VALID,190,VALID,0
2000-09-12, 02:12:00,VALID,916.856,VALID,0,VALID,98.2365,VALID,-0.0849042,VALID,17.3507,VALID,184,VALID,0
2000-09-12, 02:13:00,VALID,916.868,VALID,0,VALID,98.4095,VALID,-0.0509425,VALID,17.3408,VALID,180,VALID,0
2000-09-12, 02:14:00,VALID,916.86,VALID,0,VALID,98.4527,VALID,-0.101885,VALID,17.3115,VALID,179,VALID,0
2000-09-12, 02:15:00,VALID,916.852,VALID,0,VALID,98.4858,VALID,-0.0679233,VALID,17.2831,VALID,183,VALID,0
2000-09-12, 02:16:00,VALID,916.862,VALID,0,VALID,98.6028,VALID,-0.0679233,VALID,17.257,VALID,198,VALID,0.387458
2000-09-12, 02:17:00,VALID,916.838,VALID,0,VALID,98.6676,VALID,-0.0849042,VALID,17.2473,VALID,205,VALID,0.666131
2000-09-12, 02:18:00,VALID,916.833,VALID,0,VALID,98.7465,VALID,-0.101885,VALID,17.2312,VALID,214,VALID,0.5294
2000-09-12, 02:19:00,VALID,916.826,VALID,0,VALID,98.8762,VALID,-0.0679233,VALID,17.2411,VALID,214,VALID,0.775338
2000-09-12, 02:20:00,VALID,916.817,VALID,0,VALID,99.0046,VALID,-0.0679233,VALID,17.2633,VALID,208,VALID,0.604646
2000-09-12, 02:21:00,VALID,916.826,VALID,0,VALID,99.1165,VALID,-0.0849042,VALID,17.3121,VALID,200,VALID,0.725084
2000-09-12, 02:22:00,VALID,916.814,VALID,0,VALID,99.1,VALID,-0.0679233,VALID,17.3352,VALID,211,VALID,0.470536
2000-09-12, 02:23:00,VALID,916.807,VALID,0,VALID,99.1457,VALID,-0.0679233,VALID,17.338,VALID,215,VALID,0.266226
2000-09-12, 02:24:00,VALID,916.801,VALID,0,VALID,99.1216,VALID,-0.0679233,VALID,17.3347,VALID,215,VALID,0
2000-09-12, 02:25:00,VALID,916.807,VALID,0,VALID,99.0898,VALID,-0.0509425,VALID,17.3121,VALID,215,VALID,0
2000-09-12, 02:26:00,VALID,916.792,VALID,0,VALID,99.1305,VALID,-0.0849042,VALID,17.3053,VALID,201,VALID,0
2000-09-12, 02:27:00,VALID,916.793,VALID,0,VALID,99.2271,VALID,-0.0849042,VALID,17.3309,VALID,192,VALID,0
2000-09-12, 02:28:00,VALID,916.791,VALID,0,VALID,99.292,VALID,-0.0509425,VALID,17.3703,VALID,203,VALID,0
2000-09-12, 02:29:00,VALID,916.791,VALID,0,VALID,99.3136,VALID,-0.0509425,VALID,17.3952,VALID,197,VALID,0
2000-09-12, 02:30:00,VALID,916.795,VALID,0,VALID,99.278,VALID,0.0509425,VALID,17.4335,VALID,195,VALID,0
2000-09-12, 02:31:00,VALID,916.796,VALID,0,VALID,99.2131,VALID,0.0339617,VALID,17.4398,VALID,197,VALID,0
2000-09-12, 02:32:00,VALID,916.817,VALID,0,VALID,99.0377,VALID,0.0339617,VALID,17.4211,VALID,209,VALID,0
2000-09-12, 02:33:00,VALID,916.828,VALID,0,VALID,98.9423,VALID,0.0169808,VALID,17.3789,VALID,202,VALID,0
2000-09-12, 02:34:00,VALID,916.839,VALID,0,VALID,99.0211,VALID,0.0169808,VALID,17.3849,VALID,192,VALID,0
2000-09-12, 02:35:00,VALID,916.836,VALID,0,VALID,99.0453,VALID,0.0169808,VALID,17.4333,VALID,186,VALID,0
2000-09-12, 02:36:00,VALID,916.851,VALID,0,VALID,98.9563,VALID,0.0169808,VALID,17.4663,VALID,182,VALID,0
2000-09-12, 02:37:00,VALID,916.849,VALID,0,VALID,98.8469,VALID,0,VALID,17.4656,VALID,181,VALID,0
2000-09-12, 02:38:00,VALID,916.839,VALID,0,VALID,98.7096,VALID,0,VALID,17.4589,VALID,180,VALID,0
2000-09-12, 02:39:00,VALID,916.837,VALID,0,VALID,98.6473,VALID,0.0169808,VALID,17.4815,VALID,181,VALID,0
2000-09-12, 02:40:00,VALID,916.827,VALID,0,VALID,98.501,VALID,0,VALID,17.4856,VALID,189,VALID,0.114509
2000-09-12, 02:41:00,VALID,916.816,VALID,0,VALID,98.3523,VALID,0.0509425,VALID,17.4693,VALID,203,VALID,0.782095
2000-09-12, 02:42:00,VALID,916.797,VALID,0,VALID,98.0827,VALID,0.0509425,VALID,17.4529,VALID,199,VALID,0.672086
2000-09-12, 02:43:00,VALID,916.779,VALID,0,VALID,98.0623,VALID,0.0339617,VALID,17.4522,VALID,181,VALID,0.844367
2000-09-12, 02:44:00,VALID,916.755,VALID,0,VALID,97.8322,VALID,-0.0339617,VALID,17.4402,VALID,167,VALID,0.883247
2000-09-12, 02:45:00,VALID,916.718,VALID,0,VALID,97.6376,VALID,-0.0509425,VALID,17.4348,VALID,168,VALID,0.982936
2000-09-12, 02:46:00,VALID,916.701,VALID,0,VALID,97.5817,VALID,-0.0509425,VALID,17.4026,VALID,168,VALID,0.980574
2000-09-12, 02:47:00,VALID,916.691,VALID,0,VALID,97.7254,VALID,-0.0679233,VALID,17.3827,VALID,179,VALID,0.888097
2000-09-12, 02:48:00,VALID,916.677,VALID,0,VALID,97.8233,VALID,-0.0509425,VALID,17.3827,VALID,191,VALID,0.927837
2000-09-12, 02:49:00,VALID,916.665,VALID,0,VALID,97.7521,VALID,-0.0849042,VALID,17.3636,VALID,194,VALID,1.08763
2000-09-12, 02:50:00,VALID,916.659,VALID,0,VALID,97.6986,VALID,-0.0849042,VALID,17.3274,VALID,192,VALID,1.26254
2000-09-12, 02:51:00,VALID,916.657,VALID,0,VALID,97.7648,VALID,-0.0169808,VALID,17.3251,VALID,185,VALID,1.27998
2000-09-12, 02:52:00,VALID,916.665,VALID,0,VALID,97.8373,VALID,-0.0169808,VALID,17.2889,VALID,180,VALID,1.21607
2000-09-12, 02:53:00,VALID,916.664,VALID,0,VALID,97.5664,VALID,-0.0339617,VALID,17.2377,VALID,169,VALID,1.12881
2000-09-12, 02:54:00,VALID,916.665,VALID,0,VALID,97.4545,VALID,-0.0679233,VALID,17.1406,VALID,166,VALID,1.07741
2000-09-12, 02:55:00,VALID,916.656,VALID,0,VALID,97.6681,VALID,-0.0339617,VALID,17.099,VALID,167,VALID,1.01763
2000-09-12, 02:56:00,VALID,916.66,VALID,0,VALID,97.7737,VALID,-0.0339617,VALID,17.0209,VALID,175,VALID,0.886191
2000-09-12, 02:57:00,VALID,916.659,VALID,0,VALID,98.1501,VALID,-0.0679233,VALID,17.0119,VALID,185,VALID,0.825591
2000-09-12, 02:58:00,VALID,916.669,VALID,0,VALID,98.3281,VALID,-0.0509425,VALID,16.9923,VALID,189,VALID,1.01768
2000-09-12, 02:59:00,VALID,916.669,VALID,0,VALID,98.5811,VALID,-0.0509425,VALID,16.9856,VALID,190,VALID,1.11697
2000-09-12, 03:00:00,VALID,916.689,VALID,0,VALID,98.6333,VALID,0,VALID,16.9664,VALID,189,VALID,1.10691
2000-09-12, 03:01:00,VALID,916.707,VALID,0,VALID,98.7337,VALID,0,VALID,16.9335,VALID,186,VALID,1.17673
2000-09-12, 03:02:00,VALID,916.714,VALID,0,VALID,98.8189,VALID,-0.0509425,VALID,16.9277,VALID,187,VALID,1.12983
2000-09-12, 03:03:00,VALID,916.724,VALID,0,VALID,98.9168,VALID,-0.0509425,VALID,16.9249,VALID,183,VALID,1.12192
2000-09-12, 03:04:00,VALID,916.727,VALID,0,VALID,99.0377,VALID,0,VALID,16.9113,VALID,176,VALID,1.05511
2000-09-12, 03:05:00,VALID,916.714,VALID,0,VALID,99.1114,VALID,-0.0509425,VALID,16.9148,VALID,175,VALID,1.25535
2000-09-12, 03:06:00,VALID,916.7,VALID,0,VALID,99.2615,VALID,0,VALID,16.9503,VALID,176,VALID,1.14569
2000-09-12, 03:07:00,VALID,916.685,VALID,0,VALID,99.2144,VALID,-0.0509425,VALID,16.9344,VALID,182,VALID,0.777232
2000-09-12, 03:08:00,VALID,916.675,VALID,0,VALID,99.1775,VALID,-0.0169808,VALID,16.8989,VALID,173,VALID,0.646034
2000-09-12, 03:09:00,VALID,916.652,VALID,0,VALID,99.2169,VALID,-0.0169808,VALID,16.873,VALID,182,VALID,0.674716
2000-09-12, 03:10:00,VALID,916.642,VALID,0,VALID,99.3962,VALID,-0.0509425,VALID,16.8885,VALID,187,VALID,0.928795
2000-09-12, 03:11:00,VALID,916.634,VALID,0,VALID,99.4369,VALID,-0.0509425,VALID,16.9311,VALID,178,VALID,0.904983
2000-09-12, 03:12:00,VALID,916.629,VALID,0,VALID,99.3988,VALID,-0.0339617,VALID,16.9283,VALID,190,VALID,0.736275
2000-09-12, 03:13:00,VALID,916.635,VALID,0,VALID,99.484,VALID,-0.0679233,VALID,16.9443,VALID,193,VALID,0.894942
2000-09-12, 03:14:00,VALID,916.625,VALID,0,VALID,99.4929,VALID,-0.0339617,VALID,16.9766,VALID,200,VALID,0.519097
2000-09-12, 03:15:00,VALID,916.628,VALID,0,VALID,99.4229,VALID,-0.0509425,VALID,16.9344,VALID,200,VALID,0.580181
2000-09-12, 03:16:00,VALID,916.632,VALID,0,VALID,99.4344,VALID,-0.0339617,VALID,16.9113,VALID,203,VALID,0.549409
2000-09-12, 03:17:00,VALID,916.642,VALID,0,VALID,99.4636,VALID,-0.0339617,VALID,16.9019,VALID,192,VALID,0.386719
2000-09-12, 03:18:00,VALID,916.621,VALID,0,VALID,99.4853,VALID,-0.0509425,VALID,16.915,VALID,180,VALID,0.712788
2000-09-12, 03:19:00,VALID,916.623,VALID,0,VALID,99.4802,VALID,-0.0509425,VALID,16.8954,VALID,171,VALID,0.84924
2000-09-12, 03:20:00,VALID,916.609,VALID,0,VALID,99.5336,VALID,-0.0169808,VALID,16.9316,VALID,179,VALID,0.956003
2000-09-12, 03:21:00,VALID,916.59,VALID,0,VALID,99.5768,VALID,-0.0509425,VALID,16.9535,VALID,175,VALID,0.993454
2000-09-12, 03:22:00,VALID,916.582,VALID,0,VALID,99.5921,VALID,-0.0169808,VALID,16.9927,VALID,180,VALID,1.08058
2000-09-12, 03:23:00,VALID,916.572,VALID,0,VALID,99.5348,VALID,-0.0339617,VALID,16.9862,VALID,167,VALID,0.785657
2000-09-12, 03:24:00,VALID,916.566,VALID,0,VALID,99.5005,VALID,-0.0509425,VALID,16.9574,VALID,164,VALID,0.947917
2000-09-12, 03:25:00,VALID,916.56,VALID,0,VALID,99.5196,VALID,-0.0509425,VALID,16.9634,VALID,179,VALID,1.04263
2000-09-12, 03:26:00,VALID,916.558,VALID,0,VALID,99.5755,VALID,-0.0339617,VALID,16.9992,VALID,180,VALID,0.90625
2000-09-12, 03:27:00,VALID,916.555,VALID,0,VALID,99.5285,VALID,-0.0339617,VALID,17.022,VALID,185,VALID,0.905828
2000-09-12, 03:28:00,VALID,916.559,VALID,0,VALID,99.5577,VALID,-0.0849042,VALID,17.031,VALID,188,VALID,1.09396
2000-09-12, 03:29:00,VALID,916.56,VALID,0,VALID,99.5107,VALID,-0.0169808,VALID,17.0631,VALID,194,VALID,0.916016
2000-09-12, 03:30:00,VALID,916.553,VALID,0,VALID,99.4408,VALID,0.0849042,VALID,17.0652,VALID,203,VALID,0.917558
2000-09-12, 03:31:00,VALID,916.547,VALID,0,VALID,99.3937,VALID,0.0509425,VALID,17.062,VALID,205,VALID,0.94489
2000-09-12, 03:32:00,VALID,916.548,VALID,0,VALID,99.3708,VALID,0.101885,VALID,17.0719,VALID,207,VALID,0.980469
2000-09-12, 03:33:00,VALID,916.562,VALID,0,VALID,99.367,VALID,0.0679233,VALID,17.0915,VALID,216,VALID,0.905222
2000-09-12, 03:34:00,VALID,916.567,VALID,0,VALID,99.3441,VALID,0.0679233,VALID,17.101,VALID,215,VALID,1.17019